Location: Unspecified
(33.2407°S, 0.0000°E)
Time: 14:29:49
(UTC+00:00)

Envisat - Pass Details

Date: 28 May 2019
Orbit: 764 x 766 km, 98.1° (Epoch: 16 June)

Event Time Altitude Azimuth Distance (km) Brightness Sun altitude
Exits shadow 20:18:02 18° 287° (WNW) 1,827 5.4 -40.5°
Drops below altitude 10° 20:19:45 10° 303° (WNW) 2,309 6.0 -40.9°
Sets 20:22:24 0° 315° (NW) 3,227 6.7 -41.4°
